Voltar ao catálogo

CZ-6A DEB

AtivoSSO
NORAD 54982·DEBRIS·🇨🇳 China

Lançado Nov 11, 2022 de Taiyuan Satellite Launch Center

Loading…

Próximas Passagens (próximas 24 horas)

TLE

AtualizadoSource: Space-Track

Época: Sep 13, 2026, 00:41 UTC

1 54982U 22151TX  26256.02851865  .00004827  00000-0  11282-2 0  9992
2 54982  98.5796 287.5839 0054896 105.4548 255.2720 14.54215640200833

Acompanhe CZ-6A DEB em tempo real com AllMySat

Download on the App Store